Погода в Романовичах

Беларусь     52°25′38″N   31°07′42″E
темп.,
°C
ветер,
м/с
пор.,
м/с
влажн.,
%
обл.,
%
осадки,
мм/ч
давл.,
гПа
погр.,
м
18 января, пн
пн1800:00−16св239593 0.1 1018193
03:00−16ссв229687 0.1 101966
06:00−17ссв239781 0.0 101956
09:00−18св229665 0.1 102035
12:00−15ссв1187100 0.0 1020275
15:00−14сз3386100 0.0 1020448
18:00−16ссз2394100 0.0 1020127
21:00−16зсз2396100 0.0 1020120
19 января, вт
вт1900:00−16сз2394100 0.1 1021212
03:00−16сз2394100 0.1 1021226
06:00−17зсз239499 0.1 1020191
09:00−18зсз239598 0.1 1021130
12:00−16зсз2388100 0.0 1021252
15:00−14зсз238598 0.0 1020322
18:00−17зсз129491 0.0 102020
21:00−17юз119488 0.0 102020
20 января, ср
ср2000:00−17ююз229563 0.0 102123
03:00−17ю239458 0.0 102125
06:00−17ююв339332 0.0 102053
09:00−16юв469316 0.0 1020130
12:00−12ююв58870 0.0 1020298
15:00−10ююв598724 0.0 1019351
18:00−10ююв51091100 0.0 1018340
21:00−10ююв61192100 0.0 1018338
21 января, чт
чт2100:00−9ююв6139299 0.0 1017402
03:00−7ю71394100 0.3 1015429
06:00−5ю61294100 0.8 1013402
09:00−3ююз61296100 1.7 1013408
12:00−1ююз61192100 0.6 1013449
15:000юз61290100 0.6 1012445
18:00−1ююз51290100 0.0 1012315
21:00−1ююз5119293 0.0 1012260
22 января, пт
пт2200:00−2ююз4119324 0.0 1012224
03:00−2ююз499225 0.0 1012197
06:00−2ю499243 0.0 1011169
09:000ю599068 0.0 1010271
12:00+1ююз51191100 0.0 1009362
15:00+1ю5109299 0.0 1009317
18:000ю4991100 0.0 1009181
21:00−1ю479383 0.0 1008129